AirNav   Everest Fuels
 
 1294 users online  

PS10 Ohioport Heliport
Ohiopyle, Pennsylvania, USA

GOING TO OHIOPYLE?


FAA INFORMATION EFFECTIVE 30 JANUARY 2020

Location

FAA Identifier: PS10
Lat/Long: 39-53-07.2700N 079-30-27.1390W
39-53.121167N 079-30.452317W
39.8853528,-79.5075386
(estimated)
Elevation: 2018 ft. / 615 m (estimated)
Variation: 08W (1985)
From city: 1 mile SW of OHIOPYLE, PA
Time zone: UTC -5 (UTC -4 during Daylight Saving Time)
Zip code: 15470

Heliport Operations

Heliport use: Private use. Permission required prior to landing
Activation date: 04/1983
Control tower: no
ARTCC: CLEVELAND CENTER
FSS: ALTOONA FLIGHT SERVICE STATION
Attendance: APR-MAY 0900-1900
Wind indicator: yes
Segmented circle: no

Heliport Communications

WX AWOS-3 at VVS (8 nm NW): 133.325 (724-626-8745)
WX AWOS-3 at 2G4 (20 nm SE): 120.125 (301-746-8443)

Nearby radio navigation aids

VOR radial/distance  VOR name  Freq  Var
IHDr238/8.7INDIAN HEAD VORTAC108.2006W
MGWr045/25.6MORGANTOWN VOR/DME111.6005W
AGCr143/34.0ALLEGHENY VOR/DME110.0009W

 
NDB name  Hdg/Dist  Freq  Var  ID
CAMOR097/10.929908WVV ...- ...-
STOYSTOWN256/29.720910WSYS ... -.-- ...

Heliport Services

Runway Information

Helipad H1

Dimensions: 45 x 45 ft. / 14 x 14 m
Surface: asphalt, in fair condition
Operational restrictions: NO APP/DEP PATH FROM 5 TO 45 DEGREES.
Latitude: 39-53.121167N
Longitude: 079-30.452317W
Elevation: 2018.0 ft.
Traffic pattern: leftleft
Markings: none, in fair condition

Heliport Ownership and Management from official FAA records

Ownership: Privately-owned
Owner: PA DCNR, BUREAU OF FORESTRY
P.O. BOX 8552
HARRISBURG, PA 17105-8552
Phone (717) 787-5077
Manager: JASON WILLIAMS
P.O. BOX 8552
HARRISBURG, PA 17105-8552
Phone 717-787-5077

Heliport Operational Statistics

Aircraft based on the field: 1
Helicopters: 1
    

Additional Remarks

A52-H1 30' BLDG NORTH; 50' ANTENNA 150' NORTH.
FOR CD CTC CLARKSBURG APCH AT 304-842-2011, WHEN APCH CLSD CTC CLEVELAND ARTCC AT 440-774-0490.

Instrument Procedures

There are no published instrument procedures at PS10.

Some nearby airports with instrument procedures:

KVVS - Joseph A Hardy Connellsville Airport (8 nm NW)
2G4 - Garrett County Airport (20 nm SE)
KLBE - Arnold Palmer Regional Airport (24 nm N)
KMGW - Morgantown Municipal Airport-Walter L. Bill Hart Field (24 nm SW)
2G9 - Somerset County Airport (24 nm E)
 
Loc | Ops | Rwys | IFR | FBO | Links
Com | Nav | Svcs | Stats | Notes
Area around PS10 (Ohioport Heliport)
 
Road maps at: MapQuest Bing Google
 
Aerial photo
No photo
 
Sectional chart

 
Airport distance calculator
Flying to Ohioport Heliport? Find the distance to fly.

From to PS10

Sunrise and sunset
Times for 17-Feb-2020
 Local
(UTC-5)
 Zulu
(UTC)
Morning civil twilight06:4211:42
Sunrise07:0912:09
Sunset17:5522:55
Evening civil twilight18:2323:23

Current date and time
Zulu (UTC)  17-Feb-2020 21:39:18
Local (UTC-5)  17-Feb-2020 16:39:18
 
METAR
K2G4 
20nm SE 
172115Z AUTO 12007KT 10SM CLR 05/M06 A3011 RMK AO1
KLBE 
23nm N 
172050Z 03006KT 10SM BKN120 09/M05 A3017
KMGW 
24nm SW 
172053Z 01006KT 10SM SCT110 11/M05 A3013 RMK AO2 SLP210 T01061050 56019
K2G9 
24nm E 
172115Z AUTO 13008KT 10SM BKN110 06/M08 A3014 RMK AO2
KP53 
24nm NW 
172056Z AUTO 17017G31KT M02/M09 A3002 RMK AO1 PK WND 19031/2054 SLP179 T10171094 56029
KAGC 
34nm NW 
172053Z 09007KT 10SM FEW120 08/M06 A3015 RMK AO2 SLP223 T00781061 56022
KAFJ 
38nm W 
172056Z AUTO 09008KT 10SM OVC110 09/M05 A3017 RMK AO2 SLP225 T00891050 56021 PWINO
KCBE 
38nm SE 
172100Z AUTO 07004KT 10SM CLR 11/M06 A3022 RMK AO2 T01151059
TAF
KLBE 
23nm N 
171931Z 1720/1818 VRB04KT P6SM SCT100 BKN200 FM180600 14010G18KT P6SM VCSH OVC080 WS020/18040KT FM181000 17011G20KT P6SM -SHRA OVC040 WS020/20040KT FM181400 19012KT 4SM -SHRA OVC025 FM181700 21010KT 3SM -SHRA OVC008
KMGW 
24nm SW 
171932Z 1720/1818 VRB06KT P6SM SCT100 BKN250 FM180800 16009KT P6SM VCSH OVC050 WS020/19040KT FM181300 18010KT P6SM -SHRA OVC035 WS020/23040KT FM181600 20007KT 5SM -SHRA OVC015
NOTAMs
Click for the latest NOTAMs
NOTAMs are issued by the DoD/FAA and will open in a separate window not controlled by AirNav.

 

 
 

Would you like to see your business listed on this page?

 If your business provides an interesting product or service to pilots, flight crews, aircraft, or users of the Ohioport Heliport, you should consider listing it here.  To start the listing process, click on the button below
 
Add a business
 

Other Pages about Ohioport Heliport

Update a link
 
Copyright © AirNav, LLC. All rights reserved. Privacy Policy  Contact